Weather History for KMZH - October, 2012

Change the Weather History Date:

Thursday, October 25, 2012

  Actual Average Record
Temperature  
Mean Temperature 37 °F -  
Max Temperature 42 °F 52 °F 80 °F (1989)
Min Temperature 32 °F 32 °F 13 °F (1957)
Degree Days  
Heating Degree Days 28    
Moisture  
Dew Point 29 °F    
Average Humidity 77    
Maximum Humidity 87    
Minimum Humidity 65    
Precipitation  
Precipitation 0.08 in - - ()
Sea Level Pressure  
Sea Level Pressure 29.82 in    
Wind  
Wind Speed 11 mph (NW)    
Max Wind Speed 16 mph    
Max Gust Speed 24 mph    
Visibility 7 miles    
Events Rain , Snow    
Averages and records for this station are not official NWS values.
T = Trace of Precipitation, MM = Missing Value Source: NWS Daily Summary

Daily Weather History Graph

Daily Weather History Graph

Search for Another Location

Airport or City:

Trip Planner

Search our weather history database for the weather conditions in past years. The results will help you decide how hot, cold, wet, or windy it might be!

Date:

Astronomy

Oct. 25, 2012 Rise Set
Actual Time 7:43 AM CDT 6:06 PM CDT
Civil Twilight 7:12 AM CDT 6:37 PM CDT
Nautical Twilight 6:37 AM CDT 7:12 PM CDT
Astronomical Twilight 6:02 AM CDT 7:47 PM CDT
Moon 4:03 PM CDT (10/25) 3:27 AM CDT (10/25)
Length of Visible Light 11h 25m
Length of Day
10h 23m
Waxing Gibbous, 84% of the Moon is Illuminated
Oct 25
Waxing Gibbous
Oct 29
Full
Nov 6
Last Quarter
Nov 13
New
Nov 20
First Quarter

Hourly Weather History & Observations

Time (CDT) Temp. Windchill Dew Point Humidity Pressure Visibility Wind Dir Wind Speed Gust Speed Precip Events Conditions
12:10 AM 42.8 °F 37.0 °F 35.6 °F 76% 29.78 in 10.0 mi NNW 10.4 mph 23.0 mph N/A   Overcast
12:30 AM 42.8 °F 38.0 °F 35.6 °F 76% 29.80 in 10.0 mi NNW 8.1 mph 18.4 mph 0.01 in   Overcast
12:50 AM 42.8 °F 37.5 °F 35.6 °F 76% 29.79 in 7.0 mi NNW 9.2 mph 16.1 mph 0.02 in Rain Light Rain
1:30 AM 41.0 °F 33.9 °F 33.8 °F 76% 29.78 in 10.0 mi North 12.7 mph 21.9 mph N/A   Overcast
1:50 AM 41.0 °F 34.3 °F 33.8 °F 76% 29.77 in 10.0 mi North 11.5 mph 16.1 mph N/A   Overcast
2:10 AM 41.0 °F 34.3 °F 33.8 °F 76% 29.76 in 10.0 mi North 11.5 mph 21.9 mph N/A   Overcast
2:30 AM 41.0 °F 34.3 °F 32.0 °F 70% 29.76 in 10.0 mi North 11.5 mph 17.3 mph N/A   Overcast
2:50 AM 41.0 °F 34.7 °F 32.0 °F 70% 29.76 in 10.0 mi North 10.4 mph - 0.01 in   Overcast
3:10 AM 39.2 °F 33.0 °F 32.0 °F 75% 29.76 in 10.0 mi North 9.2 mph 16.1 mph N/A   Overcast
3:30 AM 39.2 °F 32.5 °F 32.0 °F 75% 29.77 in 10.0 mi North 10.4 mph - N/A   Overcast
3:50 AM 39.2 °F 31.6 °F 32.0 °F 75% 29.75 in 10.0 mi North 12.7 mph 19.6 mph N/A   Overcast
4:10 AM 39.2 °F 30.8 °F 32.0 °F 75% 29.73 in 10.0 mi NNW 15.0 mph - N/A   Overcast
4:30 AM 39.2 °F 32.0 °F 32.0 °F 75% 29.73 in 10.0 mi North 11.5 mph 16.1 mph N/A   Overcast
4:50 AM 39.2 °F 32.0 °F 32.0 °F 75% 29.74 in 10.0 mi North 11.5 mph 16.1 mph N/A   Overcast
5:10 AM 37.4 °F 28.2 °F 32.0 °F 81% 29.72 in 5.0 mi North 16.1 mph 20.7 mph N/A   Haze
5:30 AM 37.4 °F 29.8 °F 32.0 °F 81% 29.71 in 4.0 mi North 11.5 mph 19.6 mph N/A   Light Drizzle
5:50 AM 37.4 °F 30.3 °F 32.0 °F 81% 29.72 in 5.0 mi North 10.4 mph 19.6 mph N/A   Light Drizzle
6:10 AM 37.4 °F 29.3 °F 32.0 °F 81% 29.72 in 3.0 mi NNW 12.7 mph 20.7 mph 0.01 in Rain Rain
7:30 AM 35.6 °F 25.9 °F 30.2 °F 81% 29.72 in 4.0 mi NNW 16.1 mph 19.6 mph 0.02 in Rain Light Rain
7:50 AM 33.8 °F 24.3 °F 30.2 °F 87% 29.71 in 5.0 mi NNW 13.8 mph 21.9 mph 0.02 in Rain Light Rain
8:10 AM 33.8 °F 24.3 °F 30.2 °F 87% 29.72 in 5.0 mi NNW 13.8 mph 20.7 mph N/A Rain Light Rain
8:30 AM 33.8 °F 23.5 °F 30.2 °F 87% 29.73 in 4.0 mi NNW 16.1 mph 23.0 mph N/A Rain Rain
9:10 AM 33.8 °F 23.9 °F 30.2 °F 87% 29.71 in 2.5 mi NNW 15.0 mph 23.0 mph N/A Rain Rain
9:30 AM 33.8 °F 23.9 °F 30.2 °F 87% 29.71 in 2.5 mi NNW 15.0 mph 24.2 mph N/A Snow Light Snow
9:50 AM 33.8 °F 23.5 °F 30.2 °F 87% 29.72 in 3.0 mi NNW 16.1 mph 23.0 mph 0.01 in Snow Light Snow
10:30 AM 33.8 °F 24.8 °F 30.2 °F 87% 29.74 in 2.5 mi NW 12.7 mph 19.6 mph 0.01 in Snow Light Snow
10:50 AM 33.8 °F 23.9 °F 30.2 °F 87% 29.74 in 2.5 mi NW 15.0 mph 21.9 mph 0.01 in Snow Light Snow
11:10 AM 33.8 °F 24.3 °F 30.2 °F 87% 29.76 in 1.8 mi NW 13.8 mph 23.0 mph N/A Rain Light Rain
11:30 AM 33.8 °F 23.9 °F 28.4 °F 81% 29.76 in 1.5 mi NW 15.0 mph 23.0 mph N/A Snow Light Snow
11:50 AM 33.8 °F 23.5 °F 30.2 °F 87% 29.77 in 1.8 mi NW 16.1 mph 24.2 mph N/A Snow Light Snow
12:10 PM 33.8 °F 25.3 °F 28.4 °F 81% 29.77 in 1.5 mi NW 11.5 mph 19.6 mph N/A Snow Light Snow
12:30 PM 32.0 °F 22.5 °F 28.4 °F 87% 29.78 in 1.2 mi NW 12.7 mph 20.7 mph 0.01 in Snow Light Snow
12:50 PM 32.0 °F 21.6 °F 28.4 °F 87% 29.78 in 1.2 mi NW 15.0 mph 20.7 mph 0.01 in Snow Light Snow
1:10 PM 32.0 °F 22.5 °F 28.4 °F 87% 29.79 in 1.0 mi NNW 12.7 mph 21.9 mph N/A Snow Light Snow
1:50 PM 32.0 °F 24.2 °F 28.4 °F 87% 29.80 in 1.0 mi NW 9.2 mph - 0.01 in Snow Light Snow
2:10 PM 32.0 °F 25.6 °F 28.4 °F 87% 29.81 in 1.8 mi NW 6.9 mph - N/A Snow Light Snow
2:30 PM 33.8 °F 25.8 °F 30.2 °F 87% 29.80 in 10.0 mi NW 10.4 mph 16.1 mph N/A   Overcast
2:50 PM 33.8 °F 24.8 °F 30.2 °F 87% 29.81 in 10.0 mi NW 12.7 mph - N/A   Overcast
3:10 PM 33.8 °F 25.3 °F 30.2 °F 87% 29.82 in 10.0 mi NW 11.5 mph 17.3 mph N/A   Overcast
3:30 PM 35.6 °F 26.2 °F 28.4 °F 75% 29.83 in 10.0 mi WNW 15.0 mph 20.7 mph N/A   Overcast
3:50 PM 35.6 °F 27.1 °F 28.4 °F 75% 29.84 in 10.0 mi WNW 12.7 mph 18.4 mph N/A   Overcast
4:10 PM 35.6 °F 28.0 °F 28.4 °F 75% 29.85 in 10.0 mi WNW 10.4 mph 17.3 mph N/A   Overcast
4:30 PM 35.6 °F 28.6 °F 28.4 °F 75% 29.85 in 10.0 mi WNW 9.2 mph 17.3 mph N/A   Overcast
4:50 PM 35.6 °F 30.7 °F 28.4 °F 75% 29.86 in 10.0 mi WNW 5.8 mph - N/A   Overcast
5:30 PM 35.6 °F 28.6 °F 28.4 °F 75% 29.87 in 10.0 mi WNW 9.2 mph 16.1 mph N/A   Overcast
5:50 PM 35.6 °F 29.2 °F 26.6 °F 70% 29.88 in 10.0 mi WNW 8.1 mph - N/A   Overcast
6:10 PM 35.6 °F 28.6 °F 26.6 °F 70% 29.89 in 10.0 mi WNW 9.2 mph - N/A   Overcast
6:30 PM 33.8 °F 26.4 °F 26.6 °F 75% 29.90 in 10.0 mi West 9.2 mph - N/A   Overcast
6:50 PM 35.6 °F 27.5 °F 26.6 °F 70% 29.92 in 10.0 mi West 11.5 mph 16.1 mph N/A   Overcast
7:10 PM 35.6 °F 28.6 °F 26.6 °F 70% 29.92 in 10.0 mi West 9.2 mph 17.3 mph N/A   Overcast
7:30 PM 33.8 °F 27.0 °F 24.8 °F 70% 29.94 in 10.0 mi West 8.1 mph - N/A   Overcast
7:50 PM 33.8 °F 28.6 °F 24.8 °F 70% 29.95 in 10.0 mi West 5.8 mph - N/A   Overcast
8:30 PM 33.8 °F 27.0 °F 23.0 °F 65% 29.96 in 10.0 mi West 8.1 mph - N/A   Overcast
8:50 PM 33.8 °F - 23.0 °F 65% 29.96 in 10.0 mi Calm Calm - N/A   Overcast
9:10 PM 33.8 °F - 23.0 °F 65% 29.97 in 10.0 mi Calm Calm - N/A   Overcast
9:30 PM 33.8 °F 27.0 °F 23.0 °F 65% 29.97 in 10.0 mi West 8.1 mph - N/A   Overcast
9:50 PM 33.8 °F - 23.0 °F 65% 29.98 in 10.0 mi Calm Calm - N/A   Mostly Cloudy
10:10 PM 33.8 °F 25.8 °F 23.0 °F 65% 29.98 in 10.0 mi WSW 10.4 mph 16.1 mph N/A   Scattered Clouds
11:10 PM 33.8 °F 28.6 °F 23.0 °F 65% 30.00 in 10.0 mi WSW 5.8 mph - N/A   Overcast
11:30 PM 33.8 °F - 23.0 °F 65% 30.00 in 10.0 mi Calm Calm - N/A   Overcast
11:51 PM 33.8 °F 25.8 °F 23.0 °F 65% 30.00 in 10.0 mi WSW 10.4 mph - N/A   Overcast